Location: New Town
(33.2710°N, 90.7534°W)
Time: 14:07:18
(UTC+00:00)

Explorer 11/Cluster Stage 4 - Pass Details

Date: 19 May 2021
Orbit: 467 x 1257 km, 28.8° (Epoch: 14 June)

Event Time Altitude Azimuth Distance (km) Brightness Sun altitude
Rises 02:36:32 0° 267° (W) 3,980 10.9 -18.2°
Reaches altitude 10° 02:39:16 10° 264° (W) 3,095 10.2 -18.6°
Maximum altitude 02:47:05 62° 186° (S) 1,386 7.6 -19.8°
Enters shadow 02:51:11 31° 119° (ESE) 2,029 8.1 -20.5°
Drops below altitude 10° 02:55:09 10° 108° (ESE) 3,195 - -21.1°
Sets 02:58:02 0° 105° (ESE) 4,116 - -21.5°
